Retour au catalogue

FREGAT DEB

LostUNKNOWN
NORAD 46521·DEBRIS·🇷🇺 Russia

Lancé Jul 18, 2011 depuis Baikonur Cosmodrome

Loading…

Prochains Passages (prochaines 24 heures)

TLE

PériméSource: Space-Track

Époque: Feb 22, 2022, 23:42 UTC

1 46521U 11037LZ  22053.98763944  .00140704  00000-0  13029+0 0  9992
2 46521  51.3014 270.8473 2060534 198.7207 152.5323 10.55425472 51540

Suivez FREGAT DEB en temps réel avec AllMySat

Download on the App Store